DW2770 Weather Reports


Display with metric or nautical units.
time (UTC)temp
F
wind
direction
speed
MPH
gust
MPH
rain 1hr
in
rain 24hr
in
rain mn
in
humidity
%
barometer
mb
20210421064555 58 248 1.0 1.0 0.00 0.00 0.00 62 1019.3
20210421064053 58 293 0.0 3.0 0.00 0.00 0.00 62 1019.2
20210421063556 58 315 3.0 3.0 0.00 0.00 0.00 62 1019.2
20210421063106 58 225 3.0 3.0 0.00 0.00 0.00 62 1019.4
20210421062911 57 270 1.0 1.0 0.00 0.00 0.00 62 1019.4
20210421062419 57 293 0.0 2.0 0.00 0.00 0.00 62 1019.3
20210421061554 58 248 2.0 2.0 0.00 0.00 0.00 61 1019.3
20210421061152 57 225 1.0 1.0 0.00 0.00 0.00 62 1019.2
20210421060602 57 203 0.0 1.0 0.00 0.00 0.00 63 1019.1
20210421060252 57 113 0.0 1.0 0.00 0.00 0.00 62 1019.1
20210421055331 57 180 1.0 1.0 0.00 0.00 0.00 63 1019.0
20210421054553 57 113 0.0 0.0 0.00 0.00 0.00 62 1019.1
20210421054058 57 225 0.0 0.0 0.00 0.00 0.00 62 1019.0
20210421053555 56 23 0.0 0.0 0.00 0.00 0.00 63 1019.0
20210421053142 55 158 0.0 1.0 0.00 0.00 0.00 63 1019.0
20210421053016 55 180 0.0 2.0 0.00 0.00 0.00 63 1018.8
20210421052453 55 180 2.0 2.0 0.00 0.00 0.00 64 1018.8
20210421051553 54 180 0.0 2.0 0.00 0.00 0.00 64 1018.7
20210421051052 53 158 0.0 3.0 0.00 0.00 0.00 64 1018.8
20210421050600 53 180 3.0 3.0 0.00 0.00 0.00 64 1018.7
20210421050108 53 135 0.0 4.0 0.00 0.00 0.00 64 1018.7
20210421045903 53 180 1.0 3.0 0.00 0.00 0.00 65 1018.6
20210421045254 53 180 3.0 3.0 0.00 0.00 0.00 65 1018.7
20210421044558 52 113 0.0 4.0 0.00 0.00 0.00 66 1018.7
20210421044055 52 180 1.0 7.0 0.00 0.00 0.00 66 1018.7
20210421043556 52 203 3.0 4.0 0.00 0.00 0.00 66 1018.6
20210421043054 52 203 4.0 4.0 0.00 0.00 0.00 66 1018.6
20210421042847 52 158 2.0 5.0 0.00 0.00 0.00 67 1018.6
20210421042245 52 180 5.0 5.0 0.00 0.00 0.00 66 1018.6
20210421041556 52 180 4.0 5.0 0.00 0.00 0.00 67 1018.6
20210421041052 52 180 3.0 5.0 0.00 0.00 0.00 67 1018.6
20210421040553 52 203 5.0 5.0 0.00 0.00 0.00 67 1018.5
20210421040056 52 135 0.0 3.0 0.00 0.00 0.00 68 1018.5
20210421035849 52 158 0.0 1.0 0.00 0.00 0.00 68 1018.4
20210421035135 52 158 1.0 1.0 0.00 0.00 0.00 68 1018.4
20210421034559 52 113 0.0 0.0 0.00 0.00 0.00 68 1018.6
20210421034053 52 180 0.0 3.0 0.00 0.00 0.00 68 1018.5
20210421033555 52 180 3.0 3.0 0.00 0.00 0.00 68 1018.4
20210421033055 52 203 1.0 3.0 0.00 0.00 0.00 68 1018.5
20210421032742 52 180 1.0 2.0 0.00 0.00 0.00 68 1018.4
20210421032200 52 158 0.0 1.0 0.00 0.00 0.00 68 1018.5
20210421031552 52 158 0.0 1.0 0.00 0.00 0.00 68 1018.5
20210421031054 52 158 0.0 3.0 0.00 0.00 0.00 68 1018.4
20210421030555 52 180 3.0 3.0 0.00 0.00 0.00 68 1018.5
20210421030130 52 158 1.0 1.0 0.00 0.00 0.00 69 1018.4
20210421025853 52 180 1.0 3.0 0.00 0.00 0.00 69 1018.4
20210421025347 52 158 0.0 0.0 0.00 0.00 0.00 69 1018.5
20210421024557 52 113 0.0 1.0 0.00 0.00 0.00 69 1018.4
20210421024056 52 180 1.0 4.0 0.00 0.00 0.00 69 1018.5
20210421023552 52 180 3.0 3.0 0.00 0.00 0.00 70 1018.4
20210421023053 51 180 2.0 2.0 0.00 0.00 0.00 69 1018.4
20210421022815 52 113 0.0 0.0 0.00 0.00 0.00 69 1018.4
20210421022258 52 113 0.0 0.0 0.00 0.00 0.00 69 1018.4
20210421021553 52 135 0.0 0.0 0.00 0.00 0.00 69 1018.5
20210421021056 52 90 0.0 0.0 0.00 0.00 0.00 69 1018.4
20210421020552 52 45 0.0 0.0 0.00 0.00 0.00 69 1018.6
20210421020058 52 225 0.0 0.0 0.00 0.00 0.00 69 1018.4
20210421015824 53 90 0.0 0.0 0.00 0.00 0.00 69 1018.4
20210421015353 53 90 0.0 2.0 0.00 0.00 0.00 69 1018.4
20210421014553 53 180 1.0 1.0 0.00 0.00 0.00 69 1018.5
20210421014056 53 158 0.0 0.0 0.00 0.00 0.00 69 1018.6
20210421013554 53 158 0.0 1.0 0.00 0.00 0.00 69 1018.5
20210421013058 53 158 0.0 1.0 0.00 0.00 0.00 69 1018.6
20210421012713 53 135 0.0 2.0 0.00 0.00 0.00 69 1018.6
20210421012221 53 203 2.0 2.0 0.00 0.00 0.00 69 1018.7
20210421011554 53 180 2.0 2.0 0.00 0.00 0.00 68 1018.6
20210421011056 53 158 0.0 2.0 0.00 0.00 0.00 69 1018.8
20210421010552 53 180 2.0 2.0 0.00 0.00 0.00 69 1019.0
20210421010055 53 180 2.0 2.0 0.00 0.00 0.00 69 1019.0
20210421005923 53 315 0.0 1.0 0.00 0.00 0.00 68 1019.0
20210421005525 53 135 0.0 1.0 0.00 0.00 0.00 68 1019.1
20210421004557 53 158 1.0 1.0 0.00 0.00 0.00 68 1019.1
20210421004055 53 203 1.0 2.0 0.00 0.00 0.00 68 1019.2
20210421003553 54 180 2.0 3.0 0.00 0.00 0.00 68 1019.2
20210421003053 54 180 3.0 3.0 0.00 0.00 0.00 68 1019.3
20210421002747 54 180 0.0 0.0 0.00 0.00 0.00 68 1019.4
20210421002320 54 180 0.0 2.0 0.00 0.00 0.00 68 1019.4
20210421001552 54 180 2.0 2.0 0.00 0.00 0.00 68 1019.4
20210421001059 54 113 0.0 2.0 0.00 0.00 0.00 68 1019.5
20210421000610 54 180 1.0 2.0 0.00 0.00 0.00 67 1019.4
20210421000056 55 158 1.0 3.0 0.00 0.00 0.00 67 1019.4
20210420235812 55 180 1.0 1.0 0.00 0.00 0.00 67 1019.5
20210420235404 55 180 1.0 2.0 0.00 0.00 0.00 67 1019.5
20210420234555 55 180 2.0 2.0 0.00 0.00 0.00 67 1019.5
20210420234059 54 180 2.0 2.0 0.00 0.00 0.00 67 1019.7
20210420233552 54 180 2.0 2.0 0.00 0.00 0.00 68 1019.7
20210420233052 54 180 2.0 2.0 0.00 0.00 0.00 68 1019.7
20210420232840 53 180 1.0 1.0 0.00 0.00 0.00 67 1019.7
20210420232446 53 158 1.0 2.0 0.00 0.00 0.00 67 1019.8
20210420231552 53 180 0.0 1.0 0.00 0.00 0.00 66 1019.6
20210420231053 53 135 0.0 0.0 0.00 0.00 0.00 66 1019.6
20210420230553 53 180 0.0 0.0 0.00 0.00 0.00 66 1019.7
20210420230055 53 180 0.0 0.0 0.00 0.00 0.00 65 1019.7
20210420225716 53 45 0.0 0.0 0.00 0.00 0.00 64 1019.7
20210420225258 54 135 0.0 0.0 0.00 0.00 0.00 64 1019.7
20210420224553 54 158 0.0 3.0 0.00 0.00 0.00 64 1019.7
20210420224056 54 180 3.0 3.0 0.00 0.00 0.00 64 1019.8
20210420222651 54 180 3.0 3.0 0.00 0.00 0.00 64 1019.8
20210420222151 53 158 0.0 4.0 0.00 0.00 0.00 65 1019.8
20210420221550 53 203 4.0 4.0 0.00 0.00 0.00 65 1019.9
20210420221059 53 158 0.0 0.0 0.00 0.00 0.00 65 1019.8
20210420220550 53 293 0.0 0.0 0.00 0.00 0.00 65 1019.8
20210420220056 53 158 0.0 1.0 0.00 0.00 0.00 65 1019.7
20210420215751 53 68 0.0 0.0 0.00 0.00 0.00 64 1019.7
20210420215243 53 158 0.0 6.0 0.00 0.00 0.00 64 1019.7
20210420214549 54 180 2.0 3.0 0.00 0.00 0.00 64 1019.8
20210420214049 54 203 3.0 3.0 0.00 0.00 0.00 64 1019.8
20210420213552 53 135 0.0 1.0 0.00 0.00 0.00 64 1019.7
20210420213059 54 158 0.0 0.0 0.00 0.00 0.00 64 1019.7
20210420212755 54 45 0.0 1.0 0.00 0.00 0.00 64 1019.7
20210420212424 54 113 0.0 0.0 0.00 0.00 0.00 64 1019.7
20210420211551 54 180 2.0 2.0 0.00 0.00 0.00 64 1019.7
20210420211050 54 180 1.0 1.0 0.00 0.00 0.00 64 1019.7
20210420210552 54 180 0.0 5.0 0.00 0.00 0.00 64 1019.6
20210420210052 54 180 1.0 5.0 0.00 0.00 0.00 64 1019.7
20210420205604 53 180 5.0 5.0 0.00 0.00 0.00 66 1019.8
20210420205136 53 180 0.0 2.0 0.00 0.00 0.00 66 1019.7
20210420204556 53 225 0.0 2.0 0.00 0.00 0.00 67 1019.5
20210420204056 53 158 2.0 2.0 0.00 0.00 0.00 67 1019.6
20210420203552 53 68 0.0 1.0 0.00 0.00 0.00 67 1019.5
20210420203055 53 180 0.0 0.0 0.00 0.00 0.00 67 1019.5
20210420202634 53 68 0.0 0.0 0.00 0.00 0.00 67 1019.7
20210420202149 53 158 0.0 2.0 0.00 0.00 0.00 67 1019.7
20210420201549 53 113 0.0 0.0 0.00 0.00 0.00 66 1019.5
20210420201050 53 135 0.0 0.0 0.00 0.00 0.00 67 1019.6
20210420200549 54 113 0.0 3.0 0.00 0.00 0.00 66 1019.7
20210420200055 53 180 1.0 3.0 0.00 0.00 0.00 67 1019.6
20210420195708 53 113 0.0 0.0 0.00 0.00 0.00 67 1019.6
20210420195130 53 225 0.0 3.0 0.00 0.00 0.00 67 1019.5
20210420194554 53 68 0.0 0.0 0.00 0.00 0.00 67 1019.5
20210420194049 53 180 0.0 0.0 0.00 0.00 0.00 67 1019.4
20210420193550 54 135 0.0 2.0 0.00 0.00 0.00 67 1019.5
20210420193053 54 113 0.0 0.0 0.00 0.00 0.00 67 1019.6
20210420192714 54 135 0.0 2.0 0.00 0.00 0.00 67 1019.6
20210420192234 54 113 0.0 0.0 0.00 0.00 0.00 67 1019.4
20210420191549 54 225 0.0 1.0 0.00 0.00 0.00 68 1019.4
20210420191102 54 135 1.0 1.0 0.00 0.00 0.00 68 1019.4
20210420190549 54 90 0.0 1.0 0.00 0.00 0.00 68 1019.3
20210420190050 54 135 1.0 1.0 0.00 0.00 0.00 68 1019.3
20210420185625 54 135 0.0 2.0 0.00 0.00 0.00 68 1019.2
20210420185133 54 90 0.0 0.0 0.00 0.00 0.00 68 1019.0
20210420184551 54 45 0.0 0.0 0.00 0.00 0.00 68 1019.0
20210420184052 55 90 0.0 0.0 0.00 0.00 0.00 68 1018.8
20210420183553 55 113 0.0 0.0 0.00 0.00 0.00 68 1018.7
20210420183054 55 180 0.0 0.0 0.00 0.00 0.00 68 1018.7
20210420182746 55 158 0.0 2.0 0.00 0.00 0.00 68 1018.7
20210420182250 55 135 0.0 0.0 0.00 0.00 0.00 68 1018.8
20210420181552 55 113 0.0 0.0 0.00 0.00 0.00 67 1018.6
20210420181049 56 158 0.0 0.0 0.00 0.00 0.00 67 1018.6
20210420180549 56 90 0.0 0.0 0.00 0.00 0.00 67 1018.6
20210420180115 56 0 0.0 0.0 0.00 0.00 0.00 67 1018.5
20210420175644 57 248 0.0 0.0 0.00 0.00 0.00 67 1018.6
20210420175056 57 23 0.0 0.0 0.00 0.00 0.00 67 1018.3
20210420174549 58 45 0.0 0.0 0.00 0.00 0.00 66 1018.4
20210420174050 58 68 0.0 0.0 0.00 0.00 0.00 66 1018.3
20210420173549 58 68 0.0 0.0 0.00 0.00 0.00 66 1018.4
20210420173049 58 68 1.0 1.0 0.00 0.00 0.00 66 1018.4
20210420172720 58 90 1.0 1.0 0.00 0.00 0.00 65 1018.3
20210420172213 58 68 0.0 1.0 0.00 0.00 0.00 65 1018.3
20210420171549 59 68 4.0 4.0 0.00 0.00 0.00 65 1018.3
20210420171056 59 68 1.0 3.0 0.00 0.00 0.00 64 1018.2
20210420170551 59 68 3.0 3.0 0.00 0.00 0.00 64 1018.2
20210420170310 59 68 0.0 3.0 0.00 0.00 0.00 64 1018.3
20210420170026 59 68 3.0 3.0 0.00 0.00 0.00 64 1018.2
20210420165837 59 90 3.0 3.0 0.00 0.00 0.00 64 1018.2
20210420164557 59 90 1.0 2.0 0.00 0.00 0.00 64 1018.3
20210420164056 59 45 2.0 2.0 0.00 0.00 0.00 65 1018.3
20210420163555 59 68 2.0 2.0 0.00 0.00 0.00 65 1018.3
20210420163049 59 68 2.0 5.0 0.00 0.00 0.00 64 1018.3
20210420162710 60 45 5.0 5.0 0.00 0.00 0.00 64 1018.2
20210420162230 60 90 0.0 3.0 0.00 0.00 0.00 64 1018.2
20210420161549 59 45 1.0 1.0 0.00 0.00 0.00 64 1018.2
20210420161053 59 68 1.0 2.0 0.00 0.00 0.00 64 1018.3
20210420160556 59 68 2.0 2.0 0.00 0.00 0.00 64 1018.3
20210420160049 59 45 1.0 3.0 0.00 0.00 0.00 64 1018.4
20210420155719 59 68 3.0 3.0 0.00 0.00 0.00 64 1018.3
20210420155142 59 90 3.0 3.0 0.00 0.00 0.00 64 1018.3
20210420154552 59 68 4.0 4.0 0.00 0.00 0.00 64 1018.4
20210420154049 59 90 0.0 2.0 0.00 0.00 0.00 63 1018.3
20210420153550 59 68 2.0 3.0 0.00 0.00 0.00 63 1018.4
20210420153050 60 45 4.0 4.0 0.00 0.00 0.00 63 1018.2
20210420152726 60 68 2.0 4.0 0.00 0.00 0.00 62 1018.4
20210420152453 60 45 2.0 2.0 0.00 0.00 0.00 62 1018.4
20210420151555 60 68 3.0 4.0 0.00 0.00 0.00 62 1018.3
20210420151049 60 68 4.0 4.0 0.00 0.00 0.00 62 1018.2
20210420150549 60 90 3.0 5.0 0.00 0.00 0.00 62 1018.2
20210420150049 60 68 2.0 2.0 0.00 0.00 0.00 62 1018.2
20210420145639 60 68 2.0 4.0 0.00 0.00 0.00 61 1018.3
20210420145141 60 45 4.0 7.0 0.00 0.00 0.00 61 1018.4
20210420144553 60 68 8.0 8.0 0.00 0.00 0.00 62 1018.3
20210420144049 60 68 3.0 4.0 0.00 0.00 0.00 62 1018.4
20210420143549 60 45 4.0 4.0 0.00 0.00 0.00 61 1018.4
20210420143052 61 68 3.0 4.0 0.00 0.00 0.00 60 1018.4
20210420142739 61 293 0.0 4.0 0.00 0.00 0.00 60 1018.4
20210420142214 62 0 1.0 4.0 0.00 0.00 0.00 60 1018.4
20210420141614 62 293 1.0 1.0 0.00 0.00 0.00 61 1018.5
20210420141050 62 23 0.0 3.0 0.00 0.00 0.00 61 1018.6
20210420140549 62 68 3.0 3.0 0.00 0.00 0.00 60 1018.7
20210420140226 62 203 5.0 5.0 0.00 0.00 0.00 60 1018.5
20210420135858 62 315 2.0 5.0 0.00 0.00 0.00 60 1018.4
20210420135330 62 203 5.0 5.0 0.00 0.00 0.00 60 1018.5
20210420134549 62 248 2.0 2.0 0.00 0.00 0.00 60 1018.5
20210420134049 62 23 2.0 4.0 0.00 0.00 0.00 60 1018.5
20210420133549 61 225 4.0 5.0 0.00 0.00 0.00 61 1018.5
20210420133049 61 270 4.0 4.0 0.00 0.00 0.00 62 1018.6
20210420132800 61 225 4.0 4.0 0.00 0.00 0.00 62 1018.7
20210420132341 61 248 1.0 3.0 0.00 0.00 0.00 62 1018.7
20210420131550 62 23 3.0 4.0 0.00 0.00 0.00 62 1018.8
20210420131050 62 315 4.0 4.0 0.00 0.00 0.00 62 1018.8
20210420130550 62 315 2.0 5.0 0.00 0.00 0.00 63 1019.0
20210420130054 62 225 7.0 7.0 0.00 0.00 0.00 62 1018.8
20210420125836 61 248 6.0 8.0 0.00 0.00 0.00 62 1019.0
20210420125322 62 270 2.0 4.0 0.00 0.00 0.00 63 1019.0
20210420124551 61 203 3.0 3.0 0.00 0.00 0.00 64 1018.8
20210420124051 61 270 2.0 3.0 0.00 0.00 0.00 64 1018.8
20210420123552 61 248 2.0 3.0 0.00 0.00 0.00 64 1018.8
20210420123055 62 248 5.0 5.0 0.00 0.00 0.00 63 1018.8
20210420122713 62 158 2.0 7.0 0.00 0.00 0.00 63 1018.8
20210420121605 61 0 2.0 2.0 0.00 0.00 0.00 64 1019.1
20210420121049 61 293 2.0 4.0 0.00 0.00 0.00 64 1019.0
20210420120552 61 293 3.0 6.0 0.00 0.00 0.00 63 1019.2
20210420120052 61 180 2.0 2.0 0.00 0.00 0.00 63 1019.0
20210420115807 61 0 2.0 3.0 0.00 0.00 0.00 63 1019.0
20210420115347 61 180 1.0 1.0 0.00 0.00 0.00 64 1019.0
20210420114553 60 293 1.0 5.0 0.00 0.00 0.00 63 1019.1
20210420114049 60 270 5.0 5.0 0.00 0.00 0.00 63 1019.1
20210420113552 61 315 1.0 6.0 0.00 0.00 0.00 63 1019.2
20210420113053 61 225 2.0 3.0 0.00 0.00 0.00 63 1019.2
20210420112646 61 0 3.0 4.0 0.00 0.00 0.00 63 1019.2
20210420112201 61 225 2.0 8.0 0.00 0.00 0.00 63 1019.3
20210420111551 61 293 1.0 9.0 0.00 0.00 0.00 64 1019.2
20210420111049 60 293 9.0 9.0 0.00 0.00 0.00 65 1019.3
20210420110552 60 248 4.0 4.0 0.00 0.00 0.00 65 1019.2
20210420110049 60 315 4.0 4.0 0.00 0.00 0.00 65 1019.3
20210420105738 60 338 4.0 4.0 0.00 0.00 0.00 64 1019.2
20210420105318 60 338 4.0 7.0 0.00 0.00 0.00 63 1019.3
20210420104549 60 338 7.0 8.0 0.00 0.00 0.00 63 1019.3
20210420104049 60 315 8.0 8.0 0.00 0.00 0.00 63 1019.3
20210420103549 60 293 5.0 5.0 0.00 0.00 0.00 65 1019.3
20210420103049 60 338 7.0 7.0 0.00 0.00 0.00 64 1019.3
20210420102616 60 248 3.0 4.0 0.00 0.00 0.00 65 1019.3
20210420102115 60 315 4.0 7.0 0.00 0.00 0.00 65 1019.3
20210420101549 60 248 7.0 7.0 0.00 0.00 0.00 64 1019.3
20210420101054 60 203 4.0 7.0 0.00 0.00 0.00 63 1019.4
20210420100550 60 225 1.0 2.0 0.00 0.00 0.00 64 1019.5
20210420100050 60 338 2.0 3.0 0.00 0.00 0.00 63 1019.4
20210420095629 60 315 3.0 4.0 0.00 0.00 0.00 62 1019.4
20210420095214 60 315 4.0 8.0 0.00 0.00 0.00 63 1019.3
20210420094552 60 315 5.0 5.0 0.00 0.00 0.00 63 1019.3
20210420094049 60 248 4.0 4.0 0.00 0.00 0.00 63 1019.2
20210420093549 60 225 2.0 7.0 0.00 0.00 0.00 62 1019.3
20210420093050 60 293 2.0 4.0 0.00 0.00 0.00 62 1019.2
20210420092600 59 203 4.0 4.0 0.00 0.00 0.00 62 1019.3
20210420092109 59 293 4.0 5.0 0.00 0.00 0.00 62 1019.2
20210420091552 59 248 4.0 8.0 0.00 0.00 0.00 62 1019.3
20210420091049 59 293 5.0 7.0 0.00 0.00 0.00 62 1019.3
20210420090550 59 180 4.0 5.0 0.00 0.00 0.00 62 1019.2
20210420090054 59 248 4.0 4.0 0.00 0.00 0.00 61 1019.3
20210420085743 59 293 3.0 5.0 0.00 0.00 0.00 61 1019.3
20210420085311 59 0 5.0 6.0 0.00 0.00 0.00 61 1019.2
20210420084549 59 23 3.0 5.0 0.00 0.00 0.00 61 1019.1
20210420084056 59 270 4.0 5.0 0.00 0.00 0.00 61 1019.1
20210420083552 59 248 5.0 7.0 0.00 0.00 0.00 61 1019.0
20210420083049 59 248 4.0 4.0 0.00 0.00 0.00 61 1019.2
20210420082627 59 225 4.0 6.0 0.00 0.00 0.00 62 1019.2
20210420082132 59 293 6.0 11.0 0.00 0.00 0.00 61 1019.3
20210420081559 59 225 5.0 5.0 0.00 0.00 0.00 61 1019.1
20210420081050 59 0 3.0 6.0 0.00 0.00 0.00 61 1019.1
20210420080552 59 270 5.0 9.0 0.00 0.00 0.00 61 1018.8
20210420080049 59 270 6.0 6.0 0.00 0.00 0.00 61 1019.0
20210420075749 59 248 3.0 7.0 0.00 0.00 0.00 61 1019.0
20210420075229 59 248 7.0 7.0 0.00 0.00 0.00 61 1019.0
20210420074549 59 293 6.0 10.0 0.00 0.00 0.00 62 1019.0
20210420074049 58 225 10.0 10.0 0.00 0.00 0.00 62 1019.0
20210420073552 58 315 8.0 10.0 0.00 0.00 0.00 63 1019.0
20210420073049 58 45 2.0 4.0 0.00 0.00 0.00 63 1018.8
20210420072711 58 180 4.0 6.0 0.00 0.00 0.00 63 1018.7
20210420072158 58 113 1.0 5.0 0.00 0.00 0.00 63 1018.5
20210420071551 58 315 5.0 8.0 0.00 0.00 0.00 63 1018.6
20210420071052 58 225 8.0 8.0 0.00 0.00 0.00 62 1018.6
20210420070550 58 203 7.0 10.0 0.00 0.02 0.00 63 1018.6
20210420070052 58 225 9.0 12.0 0.00 0.02 0.00 63 1018.5
20210420065756 58 180 8.0 11.0 0.00 0.02 0.00 63 1018.4